Date,TemperatureHighF,TemperatureAvgF,TemperatureLowF,DewpointHighF,DewpointAvgF,DewpointLowF,HumidityHigh,HumidityAvg,HumidityLow,PressureMaxIn,PressureMinIn,WindSpeedMaxMPH,WindSpeedAvgMPH,GustSpeedMaxMPH,PrecipitationSumIn
2013-2-1,24.1,18.7,12.4,11.0,6.6,0.9,76,59,46,30.08,29.51,2,0,9,0.00
2013-2-2,21.4,16.2,9.2,12.1,6.2,1.3,79,65,49,30.15,30.00,3,1,14,0.00
2013-2-3,31.6,18.8,9.3,17.5,8.9,1.5,79,66,46,30.00,29.72,4,1,9,0.01
2013-2-4,28.8,18.7,9.9,13.4,3.8,-7.8,84,57,22,29.90,29.70,2,0,14,0.00
2013-2-5,26.3,14.5,2.8,9.0,-0.7,-7.0,64,51,31,30.01,29.86,3,1,10,0.00
2013-2-6,30.7,22.2,12.4,22.2,8.8,-7.9,77,58,35,30.34,29.84,3,1,15,0.00
2013-2-7,20.3,11.6,4.8,-0.3,-5.5,-11.1,58,46,31,30.57,30.34,2,0,12,0.00
2013-2-8,26.4,18.0,11.7,22.8,11.9,-0.2,88,77,57,30.40,29.88,2,0,9,0.00
2013-2-9,21.3,12.1,5.4,15.0,2.0,-4.5,83,64,45,30.34,29.89,3,1,17,0.00
2013-2-10,25.4,12.2,-3.1,6.1,0.1,-10.2,76,60,34,30.48,30.24,3,1,11,0.01
2013-2-11,37.8,29.9,12.9,35.2,22.5,4.6,92,75,46,30.23,29.57,2,0,9,0.00
2013-2-12,38.2,34.9,31.9,30.1,26.8,22.8,81,72,60,29.81,29.56,2,0,9,0.00
2013-2-13,39.9,32.7,28.4,24.9,22.9,20.4,79,67,49,29.81,29.71,1,0,5,0.00
2013-2-14,36.6,31.8,29.0,26.1,22.4,18.2,84,69,49,29.91,29.70,1,0,5,0.00
2013-2-15,45.7,36.4,31.8,30.2,25.2,19.9,82,65,40,29.92,29.81,3,1,11,0.00
2013-2-16,34.9,27.7,19.7,22.6,12.9,1.5,78,55,36,29.97,29.88,2,0,11,0.00
2013-2-17,19.4,13.7,11.2,4.6,1.6,-2.3,73,58,46,29.87,29.66,3,1,16,0.00
2013-2-18,27.5,16.4,7.4,2.3,-2.9,-9.1,63,44,20,30.13,29.85,5,1,14,0.00
2013-2-19,45.4,29.8,14.6,30.5,15.1,-0.7,90,57,28,30.12,29.56,3,0,10,0.11
2013-2-20,32.9,27.8,22.5,30.2,22.9,17.0,91,82,68,29.74,29.55,0,0,4,0.06
2013-2-21,22.5,17.7,10.5,16.1,9.3,1.8,81,70,57,30.36,29.74,4,1,13,0.00
2013-2-22,35.6,26.8,14.3,24.0,19.6,10.1,85,75,58,30.41,30.19,2,0,9,0.12
2013-2-23,37.3,33.5,28.7,31.4,28.4,22.8,92,82,66,30.19,29.86,2,0,10,0.07
2013-2-24,35.9,32.8,30.9,33.5,30.5,28.2,93,91,86,29.92,29.74,1,0,6,0.07
2013-2-25,37.6,33.1,30.9,31.1,29.2,27.9,91,86,73,30.20,29.92,1,0,4,0.02
2013-2-26,41.2,34.9,30.3,32.6,29.1,24.6,92,80,57,30.29,30.03,4,0,14,0.00
2013-2-27,38.8,36.4,34.1,34.9,29.0,23.4,89,75,60,30.04,29.59,5,2,19,0.14
2013-2-28,45.7,37.3,31.9,34.0,31.0,28.6,91,79,57,29.59,29.51,1,0,6,0.01